Weather History for Las Cruces, NM

Change the Weather History Date:

Wednesday, October 10, 2012

  Actual Average Record
Temperature  
Mean Temperature 69 °F -  
Max Temperature 84 °F 76 °F 89 °F (2007)
Min Temperature 54 °F 53 °F 39 °F (2000)
Cooling Degree Days 4    
Growing Degree Days 19 (Base 50)    
Moisture  
Dew Point 30 °F    
Average Humidity 25    
Maximum Humidity 39    
Minimum Humidity 14    
Precipitation  
Precipitation 0.00 in - - ()
Sea Level Pressure  
Sea Level Pressure 30.10 in    
Wind  
Wind Speed 7 mph (SSE)    
Max Wind Speed 13 mph    
Max Gust Speed 17 mph    
Visibility 10 miles    
Events      
Averages and records for this station are not official NWS values.
T = Trace of Precipitation, MM = Missing Value Source: NWS Daily Summary

Daily Weather History Graph

Daily Weather History Graph

Search for Another Location

Airport:

Trip Planner

Search our weather history database for the weather conditions in past years. The results will help you decide how hot, cold, wet, or windy it might be!

Date:

Astronomy

Oct. 10, 2012 Rise Set
Actual Time 7:08 AM MDT 6:40 PM MDT
Civil Twilight 6:43 AM MDT 7:04 PM MDT
Nautical Twilight 6:15 AM MDT 7:33 PM MDT
Astronomical Twilight 5:46 AM MDT 8:01 PM MDT
Moon 2:04 AM MDT (10/10) 3:29 PM MDT (10/10)
Length of Visible Light 12h 21m
Length of Day
11h 32m
Waning Crescent, 26% of the Moon is Illuminated
Oct 10
Waning Crescent
Oct 15
New
Oct 21
First Quarter
Oct 29
Full
Nov 6
Last Quarter

Hourly Weather History & Observations

Time (MDT) Temp. Dew Point Humidity Pressure Visibility Wind Dir Wind Speed Gust Speed Precip Events Conditions
12:15 AM 59.4 °F 26.4 °F 28% 30.09 in 10.0 mi West 9.2 mph - N/A   Clear
12:35 AM 58.6 °F 26.2 °F 29% 30.09 in 10.0 mi West 9.2 mph - N/A   Clear
12:55 AM 59.4 °F 26.1 °F 28% 30.09 in 10.0 mi West 10.4 mph - N/A   Clear
1:15 AM 59.4 °F 25.7 °F 28% 30.09 in 10.0 mi West 9.2 mph - N/A   Clear
1:35 AM 57.4 °F 25.5 °F 29% 30.10 in 10.0 mi WNW 5.8 mph - N/A   Clear
2:15 AM 54.5 °F 25.3 °F 32% 30.11 in 10.0 mi WNW 5.8 mph - N/A   Clear
2:35 AM 54.7 °F 24.8 °F 32% 30.11 in 10.0 mi NW 6.9 mph - N/A   Clear
2:55 AM 57.2 °F 24.8 °F 29% 30.11 in 10.0 mi WNW 6.9 mph - N/A   Clear
3:15 AM 56.7 °F 25.2 °F 30% 30.11 in 10.0 mi WNW 6.9 mph - N/A   Clear
3:35 AM 57.6 °F 25.0 °F 29% 30.10 in 10.0 mi WNW 6.9 mph - N/A   Clear
3:55 AM 57.4 °F 24.8 °F 29% 30.10 in 10.0 mi WNW 8.1 mph - N/A   Clear
4:15 AM 57.0 °F 24.8 °F 29% 30.10 in 10.0 mi WNW 8.1 mph - N/A   Clear
4:35 AM 57.9 °F 24.8 °F 28% 30.11 in 10.0 mi West 10.4 mph - N/A   Clear
4:55 AM 58.5 °F 24.8 °F 27% 30.11 in 10.0 mi West 11.5 mph - N/A   Clear
5:15 AM 59.4 °F 24.8 °F 27% 30.11 in 10.0 mi West 12.7 mph - N/A   Clear
5:35 AM 58.1 °F 25.2 °F 28% 30.11 in 10.0 mi West 10.4 mph - N/A   Clear
5:55 AM 56.1 °F 25.2 °F 30% 30.12 in 10.0 mi West 6.9 mph - N/A   Clear
6:15 AM 55.8 °F 26.1 °F 32% 30.12 in 10.0 mi WNW 8.1 mph - N/A   Clear
6:35 AM 57.0 °F 28.2 °F 33% 30.12 in 10.0 mi WNW 5.8 mph - N/A   Clear
6:55 AM 55.0 °F 28.0 °F 35% 30.13 in 10.0 mi NNE 6.9 mph - N/A   Clear
7:15 AM 55.4 °F 28.2 °F 35% 30.14 in 10.0 mi NNE 4.6 mph - N/A   Clear
7:35 AM 56.3 °F 28.4 °F 34% 30.14 in 10.0 mi NW 4.6 mph - N/A   Clear
8:15 AM 60.1 °F 29.8 °F 32% 30.15 in 10.0 mi Calm Calm - N/A   Clear
8:35 AM 63.3 °F 30.9 °F 30% 30.15 in 10.0 mi WNW 3.5 mph - N/A   Clear
8:55 AM 65.7 °F 30.9 °F 27% 30.16 in 10.0 mi Calm Calm - N/A   Clear
9:15 AM 67.5 °F 30.9 °F 26% 30.16 in 10.0 mi Calm Calm - N/A   Clear
9:35 AM 69.1 °F 30.4 °F 24% 30.16 in 10.0 mi Calm Calm - N/A   Clear
9:55 AM 69.3 °F 30.4 °F 24% 30.17 in 10.0 mi East 6.9 mph - N/A   Clear
10:15 AM 68.2 °F 30.9 °F 25% 30.17 in 10.0 mi East 5.8 mph - N/A   Clear
10:35 AM 69.3 °F 31.8 °F 25% 30.17 in 10.0 mi East 5.8 mph - N/A   Clear
10:55 AM 70.9 °F 32.0 °F 24% 30.17 in 10.0 mi ESE 3.5 mph - N/A   Clear
11:15 AM 72.3 °F 32.5 °F 23% 30.17 in 10.0 mi ESE 5.8 mph - N/A   Clear
11:35 AM 74.3 °F 32.0 °F 21% 30.17 in 10.0 mi Calm Calm - N/A   Clear
11:55 AM 75.6 °F 31.8 °F 20% 30.16 in 10.0 mi ESE 3.5 mph - N/A   Clear
12:15 PM 77.0 °F 32.5 °F 20% 30.16 in 10.0 mi ESE 5.8 mph - N/A   Clear
12:35 PM 78.1 °F 33.1 °F 19% 30.15 in 10.0 mi ESE 4.6 mph - N/A   Clear
12:55 PM 79.2 °F 31.3 °F 17% 30.14 in 10.0 mi ESE 4.6 mph - N/A   Clear
1:15 PM 80.6 °F 29.5 °F 16% 30.12 in 10.0 mi SE 8.1 mph - N/A   Clear
1:35 PM 81.5 °F 29.3 °F 15% 30.11 in 10.0 mi SSE 6.9 mph 16.1 mph N/A   Clear
1:55 PM 81.7 °F 28.8 °F 15% 30.10 in 10.0 mi ESE 10.4 mph - N/A   Clear
2:15 PM 82.0 °F 27.9 °F 14% 30.08 in 10.0 mi SE 6.9 mph - N/A   Scattered Clouds
2:35 PM 83.1 °F 28.4 °F 14% 30.08 in 10.0 mi SE 12.7 mph - N/A   Scattered Clouds
2:55 PM 83.8 °F 29.1 °F 14% 30.07 in 10.0 mi SE 11.5 mph 16.1 mph N/A   Clear
3:15 PM 83.3 °F 29.7 °F 14% 30.06 in 10.0 mi SE 10.4 mph - N/A   Clear
3:35 PM 84.0 °F 30.0 °F 14% 30.05 in 10.0 mi SE 10.4 mph - N/A   Clear
3:55 PM 83.3 °F 30.2 °F 15% 30.05 in 10.0 mi SSE 8.1 mph 16.1 mph N/A   Clear
4:15 PM 84.4 °F 30.7 °F 14% 30.04 in 10.0 mi SSE 10.4 mph 17.3 mph N/A   Clear
4:35 PM 83.8 °F 31.1 °F 15% 30.04 in 10.0 mi SE 9.2 mph - N/A   Clear
4:55 PM 83.3 °F 31.1 °F 15% 30.03 in 10.0 mi SE 4.6 mph - N/A   Clear
5:15 PM 83.3 °F 31.5 °F 15% 30.03 in 10.0 mi SSE 8.1 mph 16.1 mph N/A   Clear
5:35 PM 82.6 °F 31.5 °F 16% 30.03 in 10.0 mi SE 9.2 mph 16.1 mph N/A   Clear
5:55 PM 82.2 °F 31.1 °F 16% 30.03 in 10.0 mi SE 5.8 mph - N/A   Clear
6:15 PM 80.1 °F 31.1 °F 17% 30.03 in 10.0 mi SSE 5.8 mph - N/A   Clear
6:35 PM 79.3 °F 31.6 °F 18% 30.03 in 10.0 mi SE 5.8 mph - N/A   Clear
6:55 PM 76.6 °F 32.0 °F 20% 30.03 in 10.0 mi SE 4.6 mph - N/A   Clear
7:15 PM 74.1 °F 32.4 °F 22% 30.03 in 10.0 mi SSE 5.8 mph - N/A   Clear
7:35 PM 74.3 °F 33.8 °F 23% 30.04 in 10.0 mi SSE 5.8 mph - N/A   Clear
7:55 PM 72.3 °F 33.8 °F 24% 30.04 in 10.0 mi SSE 5.8 mph - N/A   Clear
8:15 PM 71.4 °F 34.2 °F 25% 30.05 in 10.0 mi SSE 4.6 mph - N/A   Clear
8:35 PM 72.0 °F 36.1 °F 27% 30.06 in 10.0 mi SE 6.9 mph - N/A   Clear
9:15 PM 69.8 °F 38.1 °F 31% 30.07 in 10.0 mi SE 5.8 mph - N/A   Clear
9:35 PM 68.9 °F 38.3 °F 33% 30.07 in 10.0 mi SE 6.9 mph - N/A   Clear
9:55 PM 68.9 °F 38.5 °F 33% 30.08 in 10.0 mi SE 5.8 mph - N/A   Clear
10:35 PM 68.2 °F 38.7 °F 34% 30.07 in 10.0 mi SE 5.8 mph - N/A   Clear
10:55 PM 67.3 °F 38.7 °F 35% 30.07 in 10.0 mi SE 5.8 mph - N/A   Clear
11:15 PM 67.1 °F 39.0 °F 36% 30.07 in 10.0 mi SE 8.1 mph - N/A   Clear
11:35 PM 66.0 °F 39.7 °F 38% 30.07 in 10.0 mi SE 5.8 mph - N/A   Clear
11:55 PM 65.5 °F 40.1 °F 39% 30.07 in 10.0 mi SE 5.8 mph - N/A   Scattered Clouds